TimeCST,TemperatureF,Dew PointF,Humidity,Sea Level PressureIn,VisibilityMPH,Wind Direction,Wind SpeedMPH,Gust SpeedMPH,PrecipitationIn,Events,Conditions,WindDirDegrees,DateUTC
12:05 AM,41.0,35.6,81,29.77,10.0,NNW,18.4,-,N/A,,Overcast,340,2012-11-11 06:05:00
12:53 AM,37.9,32.0,79,29.78,10.0,NNW,17.3,-,N/A,,Overcast,330,2012-11-11 06:53:00
1:16 AM,35.6,28.4,75,29.81,10.0,NNW,20.7,27.6,N/A,,Overcast,330,2012-11-11 07:16:00
1:53 AM,33.1,25.0,72,29.79,10.0,NNW,24.2,31.1,N/A,,Mostly Cloudy,330,2012-11-11 07:53:00
2:53 AM,32.0,24.1,73,29.84,10.0,NNW,17.3,-,N/A,,Scattered Clouds,330,2012-11-11 08:53:00
3:53 AM,30.9,23.0,72,29.84,10.0,NNW,17.3,24.2,N/A,,Mostly Cloudy,340,2012-11-11 09:53:00
4:38 AM,30.2,21.2,69,29.86,10.0,NNW,17.3,-,N/A,,Mostly Cloudy,340,2012-11-11 10:38:00
4:53 AM,30.0,21.9,72,29.86,10.0,North,16.1,-,N/A,,Mostly Cloudy,350,2012-11-11 10:53:00
5:53 AM,28.9,19.0,67,29.93,10.0,NNW,16.1,26.5,N/A,,Overcast,340,2012-11-11 11:53:00
6:53 AM,27.0,17.1,66,29.94,10.0,NNW,25.3,32.2,N/A,,Overcast,340,2012-11-11 12:53:00
7:53 AM,26.6,15.8,64,29.98,10.0,NNW,20.7,29.9,N/A,,Overcast,330,2012-11-11 13:53:00
8:53 AM,25.0,14.0,63,30.04,10.0,NNW,19.6,-,N/A,,Clear,340,2012-11-11 14:53:00
9:53 AM,28.0,10.9,49,30.06,10.0,North,25.3,33.4,N/A,,Clear,350,2012-11-11 15:53:00
10:53 AM,30.0,10.9,45,30.08,10.0,North,23.0,31.1,N/A,,Clear,350,2012-11-11 16:53:00
12:53 PM,35.1,10.9,37,30.08,10.0,NNW,20.7,26.5,N/A,,Clear,330,2012-11-11 18:53:00
2:53 PM,37.0,9.0,31,30.10,10.0,NNW,17.3,23.0,N/A,,Clear,330,2012-11-11 20:53:00
3:53 PM,37.9,12.0,35,30.12,10.0,NNW,12.7,19.6,N/A,,Clear,340,2012-11-11 21:53:00
4:53 PM,35.1,12.9,40,30.15,10.0,North,8.1,-,N/A,,Clear,350,2012-11-11 22:53:00
5:53 PM,32.0,14.0,48,30.18,10.0,NNW,4.6,-,N/A,,Scattered Clouds,340,2012-11-11 23:53:00
6:53 PM,32.0,12.2,44,30.16,10.0,NNW,3.5,-,N/A,,Clear,330,2012-11-12 00:53:00
7:53 PM,27.0,15.1,61,30.26,10.0,West,4.6,-,N/A,,Clear,260,2012-11-12 01:53:00
8:53 PM,25.0,14.0,63,30.28,10.0,West,5.8,-,N/A,,Clear,280,2012-11-12 02:53:00
9:53 PM,19.9,12.0,71,30.31,10.0,West,6.9,-,N/A,,Clear,260,2012-11-12 03:53:00
10:53 PM,21.9,12.0,66,30.32,10.0,West,6.9,-,N/A,,Clear,270,2012-11-12 04:53:00